Location: Bukit Nyuki
(2.5885°N, 113.7476°E)
Time: 04:51:20
(UTC+00:00)

Meteor 1-22 - Pass Details

Date: 18 May 2021
Orbit: 796 x 906 km, 81.3° (Epoch: 22 June)

Event Time Altitude Azimuth Distance (km) Brightness Sun altitude
Rises 12:10:14 0° 358° (N) 3,333 8.1 -24.5°
Reaches altitude 10° 12:12:38 10° 0° (N) 2,390 7.3 -25.0°
Enters shadow 12:17:47 73° 61° (ENE) 836 4.5 -26.2°
